Showing default

POPSAT HIP 1, 40028

Orbit data source: Space-Track

POPSAT HIP 1, 40028 is a payload satellite owned by MicroSpace Rapid (SG) in SSO that was launched on Thu, 19 Jun 2014 UTC via a DNEPR launch vehicle from the Orenburg, Russia (OREN). Payload-class satellites include a variety of spacecraft equipped with specific instruments for various scientific and technological missions. These include communications satellites like Starlink; space stations such as the ISS; scientific satellites like the Hubble; Earth observation satellites from companies like Planet Labs, Umbra, and HawkEye 360; GPS; miniature CubeSats for education and research; and military/defense satellites.

Loading next visibility...
Identifier
40028, 2014-033U
Orbit
SSO
Country
Flag of SGSG / SING
Related business
Manufacturer
MicroSpace Rapid
Mission
Non-operational Commercial Imaging
Bus & Motor
CUBESAT 3U, Unknown motor
Mass
~4 kg wet, ~4 kg dry
Launch date (UTC)
2014-06-19 (12 years ago)
Launch vehicle
DNEPR
Launch site
Orenburg, Russia (OREN)
Object type
Payload
Rocket body
Debris
Shape & HBR
Box, 0.1 m
Radar Cross Section
0.075 m², Medium (>0.1 m² and < 1m²)

Expand to show TLE details & history
Last TLE update: 9 hours ago

TLE from 9 hours ago
0 POPSAT HIP 1
1 40028U 14033U   26124.21991223  .00007093  00000-0  38713-3 0  9993
2 40028  98.1001 132.2406 0006475 358.8673   1.2542 15.14672625646149
Epoch: 2026-05-04T05:16Z
TLE epoch observation values (Epoch: 2026-05-04T05:16:40.416Z)
Latitude
0.00002°
Longitude
-169.04004°
Altitude
520.567 km
Speed
7.606 km/s
True Right ascension
08h 48m 57s
True Declination
0° 00' 00"
Sunlit
Object was in daylight at epoch
Visualization orbit readout
Latitude
Unknown
Longitude
Unknown
Altitude
Unknown
Speed
Unknown
Apparent Right ascension
Unknown
Apparent Declination
Unknown
Sunlit
N/A
Visualization observer readout
Local Sidereal Time
22:13:05
Azimuth
Unknown
Elevation
Unknown
Doppler factor
Unknown
Orbital elements
Apogee altitude
523.442 km
Perigee altitude
514.511 km
Semi-major axis
6,897.114 km
Eccentricity
0.00065
Inclination
98.1001°
RAAN
132.2406°
Arg. of periapsis
358.8673°
True anomaly
1.25583°
Mean anomaly
1.2542°
Eccentric anomaly
1.25501°
Mean motion
3.78915 °/min
Orbital period
95.01 mins
BSTAR
0.00038713
Loading maneuver chart data...
Computing Atmospheric mass density...
Loading historical data...
Loading historical data...
Loading historical data...
Loading historical data...
Loading historical data...
Loading historical data...
Loading historical data...

Documentation

Showing up to 5 results
|